Weather History for West Plains, MO

Change the Weather History Date:

Saturday, April 27, 2013

  Actual Average Record
Temperature  
Mean Temperature 51 °F 61 °F  
Max Temperature 55 °F 73 °F 87 °F (1989)
Min Temperature 47 °F 49 °F 33 °F (1953)
Degree Days  
Heating Degree Days 14 5  
Month to date heating degree days 305 237  
Since 1 July heating degree days 4351 4247  
Cooling Degree Days 0 1  
Month to date cooling degree days 15 22  
Year to date cooling degree days 15 26  
Moisture  
Dew Point 50 °F    
Average Humidity 93    
Maximum Humidity 100    
Minimum Humidity 86    
Precipitation  
Precipitation 0.46 in 0.16 in 1.39 in (1969)
Month to date precipitation 5.21 4.00  
Year to date precipitation 16.28 13.85  
Sea Level Pressure  
Sea Level Pressure 30.06 in    
Wind  
Wind Speed 6 mph (ESE)    
Max Wind Speed 15 mph    
Max Gust Speed 28 mph    
Visibility 7 miles    
Events Fog , Rain , Thunderstorm    
T = Trace of Precipitation, MM = Missing Value Source: NWS Daily Summary

Daily Weather History Graph

Daily Weather History Graph

Search for Another Location

Airport:

Trip Planner

Search our weather history database for the weather conditions in past years. The results will help you decide how hot, cold, wet, or windy it might be!

Date:

Astronomy

Apr. 27, 2013 Rise Set
Actual Time 6:17 AM CDT 7:53 PM CDT
Civil Twilight 5:50 AM CDT 8:20 PM CDT
Nautical Twilight 5:17 AM CDT 8:54 PM CDT
Astronomical Twilight 4:42 AM CDT 9:29 PM CDT
Moon 10:20 PM CDT (4/27) 7:39 AM CDT (4/27)
Length of Visible Light 14h 30m
Length of Day
13h 35m
Waning Gibbous, 95% of the Moon is Illuminated
Apr 27
Waning Gibbous
May 2
Last Quarter
May 9
New
May 17
First Quarter
May 24
Full

Hourly Weather History & Observations

Time (CDT) Temp. Windchill Dew Point Humidity Pressure Visibility Wind Dir Wind Speed Gust Speed Precip Events Conditions
12:02 AM 46.4 °F 42.4 °F 46.4 °F 100% 30.22 in 7.0 mi SE 8.1 mph - 0.00 in Rain Light Rain
12:09 AM 46.4 °F 44.3 °F 46.4 °F 100% 30.23 in 10.0 mi SE 4.6 mph - 0.00 in   Overcast
12:53 AM 46.9 °F - 46.0 °F 97% 30.25 in 7.0 mi ENE 4.6 mph - 0.00 in   Overcast
1:15 AM 46.4 °F 42.9 °F 46.4 °F 100% 30.22 in 10.0 mi ENE 6.9 mph - 0.01 in   Overcast
1:40 AM 46.4 °F 42.4 °F 46.4 °F 100% 30.20 in 10.0 mi East 8.1 mph - 0.01 in   Overcast
1:53 AM 46.9 °F - 46.0 °F 97% 30.19 in 9.0 mi East 6.9 mph - 0.01 in   Overcast
2:53 AM 46.9 °F - 46.0 °F 97% 30.17 in 10.0 mi East 8.1 mph - 0.01 in   Overcast
3:53 AM 48.0 °F - 46.9 °F 96% 30.14 in 10.0 mi East 9.2 mph - 0.00 in   Overcast
4:53 AM 48.0 °F - 46.9 °F 96% 30.16 in 8.0 mi WSW 4.6 mph - 0.01 in Rain Light Rain
5:11 AM 48.2 °F - 46.4 °F 93% 30.14 in 4.0 mi ESE 4.6 mph - 0.03 in Rain , Thunderstorm Light Rain
5:26 AM 48.2 °F - 46.4 °F 93% 30.14 in 4.0 mi SE 5.8 mph - 0.08 in Rain Rain
5:37 AM 48.2 °F - 46.4 °F 93% 30.12 in 3.0 mi ESE 8.1 mph - 0.12 in Rain Rain
5:53 AM 48.0 °F - 46.9 °F 96% 30.09 in 4.0 mi ESE 13.8 mph 17.3 mph 0.17 in Rain Rain
6:07 AM 48.2 °F - 46.4 °F 93% 30.07 in 7.0 mi SE 15.0 mph 20.7 mph 0.03 in Rain Light Rain
6:53 AM 48.9 °F - 48.0 °F 97% 30.04 in 10.0 mi East 8.1 mph 17.3 mph 0.03 in   Overcast
7:53 AM 50.0 °F - 48.0 °F 93% 30.09 in 10.0 mi ENE 5.8 mph - N/A   Overcast
8:53 AM 51.1 °F - 48.9 °F 92% 30.10 in 10.0 mi East 8.1 mph - N/A   Overcast
9:35 AM 51.8 °F - 50.0 °F 94% 30.09 in 10.0 mi East 6.9 mph - N/A   Overcast
9:53 AM 51.1 °F - 50.0 °F 96% 30.09 in 9.0 mi ESE 9.2 mph - N/A   Overcast
10:53 AM 51.1 °F - 50.0 °F 96% 30.08 in 5.0 mi ESE 9.2 mph - N/A   Overcast
11:20 AM 51.8 °F - 50.0 °F 94% 30.08 in 1.8 mi ESE 8.1 mph - N/A   Overcast
11:36 AM 51.8 °F - 51.8 °F 100% 30.08 in 0.8 mi ESE 8.1 mph - N/A   Overcast
11:53 AM 51.1 °F - 51.1 °F 100% 30.08 in 0.8 mi ESE 6.9 mph - N/A   Mist
12:29 PM 51.8 °F - 51.8 °F 100% 30.05 in 1.0 mi ESE 9.2 mph - 0.01 in   Mist
12:37 PM 51.8 °F - 51.8 °F 100% 30.06 in 0.5 mi East 9.2 mph - 0.01 in Fog , Rain , Thunderstorm Light Thunderstorms and Rain
12:53 PM 52.0 °F - 51.1 °F 97% 30.05 in 1.2 mi ESE 5.8 mph - 0.05 in Rain Rain
1:12 PM 51.8 °F - 51.8 °F 100% 30.04 in 3.0 mi East 5.8 mph - 0.04 in Rain Light Rain
1:23 PM 53.6 °F - 51.8 °F 94% 30.04 in 2.5 mi Variable 4.6 mph - 0.05 in Rain Light Rain
1:31 PM 51.8 °F - 51.8 °F 100% 30.06 in 8.0 mi Calm Calm - 0.05 in Rain Light Rain
1:39 PM 51.8 °F - 51.8 °F 100% 30.03 in 5.0 mi East 4.6 mph - 0.07 in Rain Rain
1:53 PM 53.1 °F - 52.0 °F 96% 30.02 in 10.0 mi East 5.8 mph - 0.07 in   Overcast
2:05 PM 53.6 °F - 51.8 °F 94% 30.03 in 10.0 mi SE 4.6 mph - N/A   Overcast
2:24 PM 53.6 °F - 51.8 °F 94% 30.04 in 1.5 mi Calm Calm - 0.05 in Rain Rain
2:37 PM 53.6 °F - 51.8 °F 94% 30.02 in 1.5 mi East 3.5 mph - 0.10 in Rain Heavy Rain
2:44 PM 53.6 °F - 51.8 °F 94% 30.02 in 3.0 mi East 3.5 mph - 0.10 in Rain Light Rain
2:53 PM 54.0 °F - 52.0 °F 93% 30.01 in 7.0 mi ESE 4.6 mph - 0.10 in Rain Light Rain
3:22 PM 53.6 °F - 51.8 °F 94% 30.01 in 10.0 mi Calm Calm - 0.01 in   Overcast
3:37 PM 53.6 °F - 51.8 °F 94% 30.00 in 2.5 mi ESE 3.5 mph - 0.01 in   Overcast
3:48 PM 53.6 °F - 51.8 °F 94% 30.00 in 5.0 mi SE 3.5 mph - 0.01 in   Overcast
3:53 PM 54.0 °F - 52.0 °F 93% 30.00 in 7.0 mi SSE 4.6 mph - 0.01 in   Overcast
4:06 PM 53.6 °F - 51.8 °F 94% 29.99 in 10.0 mi Calm Calm - N/A   Overcast
4:40 PM 55.4 °F - 51.8 °F 88% 29.99 in 10.0 mi SW 3.5 mph - N/A   Overcast
4:53 PM 55.0 °F - 52.0 °F 89% 29.99 in 10.0 mi SW 3.5 mph - N/A   Overcast
5:50 PM 55.4 °F - 51.8 °F 88% 29.98 in 10.0 mi West 5.8 mph - N/A   Overcast
5:53 PM 55.0 °F - 52.0 °F 89% 29.97 in 10.0 mi West 4.6 mph - N/A   Overcast
6:53 PM 55.0 °F - 53.1 °F 93% 29.98 in 10.0 mi NW 3.5 mph - N/A   Overcast
7:39 PM 53.6 °F - 51.8 °F 94% 29.97 in 10.0 mi WNW 4.6 mph - N/A   Overcast
7:53 PM 54.0 °F - 52.0 °F 93% 29.97 in 10.0 mi NW 3.5 mph - N/A   Overcast
8:53 PM 54.0 °F - 51.1 °F 90% 29.97 in 10.0 mi NNW 4.6 mph - N/A   Overcast
9:53 PM 54.0 °F - 51.1 °F 90% 29.98 in 10.0 mi NW 5.8 mph - N/A   Overcast
10:18 PM 53.6 °F - 51.8 °F 94% 29.98 in 10.0 mi NW 4.6 mph - N/A   Overcast
10:53 PM 53.1 °F - 51.1 °F 93% 29.98 in 10.0 mi Calm Calm - N/A   Overcast
11:11 PM 53.6 °F - 51.8 °F 94% 29.98 in 7.0 mi Calm Calm - N/A   Overcast
11:27 PM 53.6 °F - 51.8 °F 94% 29.98 in 5.0 mi West 3.5 mph - N/A   Overcast
11:38 PM 53.6 °F - 51.8 °F 94% 29.98 in 4.0 mi West 4.6 mph - N/A   Overcast
11:53 PM 52.0 °F - 51.1 °F 97% 29.98 in 4.0 mi NW 3.5 mph - N/A   Overcast